Weather History for K5W8 - February, 2014

Change the Weather History Date:

Friday, February 21, 2014

  Actual Average (KGSO) Record (KGSO)
Temperature  
Mean Temperature 50 °F 44 °F  
Max Temperature 68 °F 54 °F 74 °F (2011)
Min Temperature 33 °F 34 °F 13 °F (1959)
Degree Days  
Heating Degree Days 14 21  
Month to date heating degree days 490  
Since 1 July heating degree days 2713  
Cooling Degree Days 0 0  
Month to date cooling degree days 0  
Year to date cooling degree days 0  
Moisture  
Dew Point 53 °F    
Average Humidity 88    
Maximum Humidity 100    
Minimum Humidity 63    
Precipitation  
Precipitation 0.00 in 0.11 in 1.17 in (1993)
Month to date precipitation 2.15  
Year to date precipitation 5.21  
Snow  
Snow 0.00 in 0.10 in 2.90 in (1929)
Month to date snowfall 1.9  
Since 1 July snowfall 6.2  
Snow Depth -    
Sea Level Pressure  
Sea Level Pressure 29.91 in    
Wind  
Wind Speed 11 mph (SSW)    
Max Wind Speed 22 mph    
Max Gust Speed 34 mph    
Visibility 10 miles    
Events Rain    
T = Trace of Precipitation, MM = Missing Value Source: NWS Daily Summary

Daily Weather History Graph

Daily Weather History Graph

Search for Another Location

Airport or City:

Trip Planner

Search our weather history database for the weather conditions in past years. The results will help you decide how hot, cold, wet, or windy it might be!

Date:

Astronomy

Feb. 21, 2014 Rise Set
Actual Time 6:58 AM EST 6:05 PM EST
Civil Twilight 6:32 AM EST 6:31 PM EST
Nautical Twilight 6:02 AM EST 7:01 PM EST
Astronomical Twilight 5:32 AM EST 7:30 PM EST
Moon No Moon Rise 10:34 AM EST (2/21)
Length of Visible Light 11h 59m
Length of Day
11h 07m
Waning Gibbous, 61% of the Moon is Illuminated
Feb 21
Waning Gibbous
Feb 22
Last Quarter
Mar 1
New
Mar 8
First Quarter
Mar 16
Full

Hourly Weather History & Observations

Time (EST) Temp. Dew Point Humidity Pressure Visibility Wind Dir Wind Speed Gust Speed Precip Events Conditions
12:15 AM 64.8 °F 59.9 °F 84% 29.97 in 10.0 mi SSW 16.1 mph 27.6 mph N/A   Overcast
12:35 AM 64.8 °F 59.9 °F 84% 29.97 in 10.0 mi South 15.0 mph 23.0 mph N/A   Overcast
12:55 AM 65.3 °F 60.1 °F 83% 29.96 in 10.0 mi South 16.1 mph 23.0 mph N/A   Overcast
1:15 AM 65.3 °F 60.3 °F 84% 29.95 in 10.0 mi South 15.0 mph 21.9 mph N/A   Overcast
1:35 AM 65.3 °F 60.8 °F 85% 29.95 in 10.0 mi South 18.4 mph 24.2 mph N/A   Overcast
1:55 AM 65.8 °F 60.8 °F 84% 29.96 in 10.0 mi SSW 19.6 mph 25.3 mph N/A   Overcast
2:15 AM 65.7 °F 60.8 °F 84% 29.95 in 10.0 mi South 18.4 mph 27.6 mph N/A   Overcast
2:35 AM 65.5 °F 60.4 °F 84% 29.94 in 10.0 mi South 17.3 mph 23.0 mph N/A   Overcast
2:55 AM 65.3 °F 60.8 °F 85% 29.94 in 10.0 mi South 17.3 mph 23.0 mph N/A   Overcast
3:15 AM 65.5 °F 60.8 °F 85% 29.93 in 10.0 mi South 15.0 mph 23.0 mph N/A   Overcast
3:35 AM 65.7 °F 60.4 °F 83% 29.93 in 10.0 mi South 15.0 mph 21.9 mph N/A   Overcast
3:55 AM 65.7 °F 60.8 °F 84% 29.92 in 10.0 mi South 11.5 mph - N/A   Overcast
4:15 AM 65.5 °F 60.8 °F 85% 29.92 in 10.0 mi South 15.0 mph 20.7 mph N/A   Overcast
4:35 AM 65.5 °F 61.0 °F 85% 29.91 in 10.0 mi South 11.5 mph 18.4 mph N/A   Overcast
4:55 AM 65.7 °F 60.8 °F 84% 29.90 in 10.0 mi South 12.7 mph 18.4 mph N/A   Overcast
5:15 AM 65.7 °F 60.8 °F 84% 29.89 in 10.0 mi South 12.7 mph - N/A   Overcast
5:35 AM 65.1 °F 60.8 °F 86% 29.89 in 10.0 mi South 13.8 mph 20.7 mph N/A   Mostly Cloudy
5:55 AM 64.9 °F 60.6 °F 86% 29.87 in 10.0 mi South 11.5 mph 17.3 mph N/A   Scattered Clouds
6:15 AM 64.8 °F 60.3 °F 85% 29.86 in 10.0 mi South 15.0 mph 18.4 mph N/A   Scattered Clouds
6:35 AM 64.4 °F 60.3 °F 86% 29.87 in 10.0 mi South 13.8 mph 24.2 mph N/A   Scattered Clouds
6:55 AM 64.4 °F 60.3 °F 86% 29.87 in 10.0 mi South 13.8 mph 18.4 mph N/A   Mostly Cloudy
7:15 AM 64.4 °F 60.4 °F 87% 29.87 in 10.0 mi South 11.5 mph - N/A   Mostly Cloudy
7:35 AM 64.4 °F 60.4 °F 87% 29.89 in 10.0 mi South 11.5 mph 18.4 mph N/A   Mostly Cloudy
7:55 AM 64.6 °F 60.8 °F 88% 29.89 in 10.0 mi South 12.7 mph 18.4 mph N/A   Overcast
8:15 AM 64.9 °F 60.8 °F 86% 29.89 in 10.0 mi South 11.5 mph 19.6 mph N/A   Overcast
8:35 AM 65.5 °F 61.0 °F 85% 29.89 in 10.0 mi South 13.8 mph 20.7 mph N/A   Overcast
8:55 AM 66.2 °F 61.3 °F 84% 29.88 in 10.0 mi South 12.7 mph 19.6 mph N/A   Overcast
9:15 AM 66.4 °F 61.7 °F 85% 29.86 in 10.0 mi South 13.8 mph 23.0 mph N/A   Overcast
9:35 AM 67.3 °F 61.7 °F 82% 29.85 in 10.0 mi South 16.1 mph 25.3 mph N/A   Overcast
9:55 AM 68.2 °F 61.9 °F 80% 29.86 in 10.0 mi South 21.9 mph 34.5 mph N/A   Overcast
10:15 AM 60.1 °F 56.7 °F 88% 29.90 in 5.0 mi SW 17.3 mph 29.9 mph N/A Rain Heavy Rain
10:35 AM 58.1 °F 57.2 °F 97% 29.89 in 7.0 mi SSW 12.7 mph 18.4 mph N/A Rain Heavy Rain
10:55 AM 58.8 °F 58.3 °F 98% 29.87 in 10.0 mi South 10.4 mph - N/A Rain Light Rain
11:15 AM 59.0 °F 58.6 °F 99% 29.86 in 10.0 mi SSW 10.4 mph - N/A Rain Light Rain
11:35 AM 59.4 °F 59.0 °F 99% 29.83 in 10.0 mi South 9.2 mph - N/A Rain Light Rain
11:55 AM 59.9 °F 59.2 °F 97% 29.83 in 10.0 mi South 9.2 mph - N/A Rain Light Rain
12:15 PM 60.3 °F 59.4 °F 97% 29.84 in 10.0 mi SSW 9.2 mph - N/A   Mostly Cloudy
12:35 PM 60.8 °F 59.4 °F 95% 29.82 in 10.0 mi SSW 8.1 mph - N/A   Scattered Clouds
12:55 PM 61.3 °F 59.5 °F 94% 29.82 in 10.0 mi SSW 10.4 mph 18.4 mph N/A   Mostly Cloudy
1:15 PM 62.1 °F 59.4 °F 91% 29.81 in 10.0 mi SW 6.9 mph 19.6 mph N/A   Overcast
1:35 PM 62.2 °F 59.2 °F 90% 29.81 in 10.0 mi SW 8.1 mph - N/A   Overcast
1:55 PM 62.8 °F 59.4 °F 89% 29.81 in 10.0 mi SSW 9.2 mph - N/A   Overcast
2:15 PM 63.5 °F 59.7 °F 87% 29.82 in 10.0 mi WSW 9.2 mph 16.1 mph N/A   Overcast
2:35 PM 55.4 °F 49.3 °F 80% 29.84 in 10.0 mi WNW 6.9 mph 17.3 mph N/A   Overcast
2:55 PM 55.9 °F 49.8 °F 80% 29.84 in 10.0 mi NW 4.6 mph - N/A   Mostly Cloudy
3:15 PM 58.6 °F 49.6 °F 72% 29.84 in 10.0 mi NW 9.2 mph - N/A   Scattered Clouds
3:35 PM 57.7 °F 48.4 °F 71% 29.85 in 10.0 mi WNW 5.8 mph - N/A   Mostly Cloudy
3:55 PM 57.4 °F 48.2 °F 71% 29.86 in 10.0 mi NW 4.6 mph - N/A   Overcast
4:15 PM 58.3 °F 46.8 °F 66% 29.87 in 10.0 mi WNW 4.6 mph - N/A   Overcast
4:35 PM 57.7 °F 46.6 °F 66% 29.88 in 10.0 mi WNW 3.5 mph - N/A   Overcast
4:55 PM 57.2 °F 46.2 °F 67% 29.89 in 10.0 mi WNW 3.5 mph - N/A   Overcast
5:15 PM 57.7 °F 46.2 °F 65% 29.90 in 10.0 mi NW 3.5 mph - N/A   Scattered Clouds
5:35 PM 57.6 °F 45.1 °F 63% 29.90 in 10.0 mi Calm Calm - N/A   Clear
5:55 PM 55.0 °F 46.0 °F 72% 29.91 in 10.0 mi Calm Calm - N/A   Clear
6:15 PM 49.5 °F 46.6 °F 90% 29.92 in 10.0 mi Calm Calm - N/A   Clear
6:35 PM 48.0 °F 45.9 °F 92% 29.94 in 10.0 mi Calm Calm - N/A   Clear
6:55 PM 46.4 °F 46.0 °F 99% 29.95 in 10.0 mi Calm Calm - N/A   Clear
7:15 PM 43.9 °F 43.9 °F 100% 29.96 in 10.0 mi Calm Calm - N/A   Clear
7:35 PM 44.1 °F 44.1 °F 100% 29.97 in 10.0 mi Calm Calm - N/A   Clear
7:55 PM 41.9 °F 41.9 °F 100% 29.98 in 10.0 mi Calm Calm - N/A   Clear
8:15 PM 41.5 °F 41.5 °F 100% 29.99 in 10.0 mi Calm Calm - N/A   Clear
8:35 PM 40.8 °F 40.8 °F 100% 29.99 in 10.0 mi Calm Calm - N/A   Clear
8:55 PM 38.5 °F 38.5 °F 100% 30.00 in 10.0 mi Calm Calm - N/A   Clear
9:15 PM 38.1 °F 38.1 °F 100% 30.00 in 10.0 mi Calm Calm - N/A   Clear
9:35 PM 38.1 °F 38.1 °F 100% 30.00 in 10.0 mi Calm Calm - N/A   Clear
9:55 PM 37.2 °F 37.2 °F 100% 30.01 in 10.0 mi Calm Calm - N/A   Clear
10:15 PM 36.9 °F 36.9 °F 100% 30.02 in 10.0 mi Calm Calm - N/A   Clear
10:35 PM 35.4 °F 35.4 °F 100% 30.02 in 10.0 mi Calm Calm - N/A   Clear
10:55 PM 35.2 °F 35.2 °F 100% 30.03 in 10.0 mi Calm Calm - N/A   Clear
11:15 PM 34.0 °F 34.0 °F 100% 30.03 in 10.0 mi Calm Calm - N/A   Clear
11:35 PM 33.8 °F 33.8 °F 100% 30.04 in 10.0 mi Calm Calm - N/A   Clear
11:55 PM 33.3 °F 33.3 °F 100% 30.04 in 10.0 mi Calm Calm - N/A   Clear